Weather History for Wise, VA

Change the Weather History Date:

Thursday, January 3, 2013

  Actual Average Record
Temperature  
Mean Temperature 32 °F -  
Max Temperature 35 °F 40 °F 66 °F (2000)
Min Temperature 28 °F 26 °F 1 °F (2001)
Degree Days  
Heating Degree Days 34    
Moisture  
Dew Point 28 °F    
Average Humidity 89    
Maximum Humidity 100    
Minimum Humidity 70    
Precipitation  
Precipitation 0.03 in - - ()
Sea Level Pressure  
Sea Level Pressure 30.17 in    
Wind  
Wind Speed 3 mph (NW)    
Max Wind Speed 8 mph    
Max Gust Speed -    
Visibility 9 miles    
Events      
Averages and records for this station are not official NWS values.
T = Trace of Precipitation, MM = Missing Value Source: NWS Daily Summary

Daily Weather History Graph

Daily Weather History Graph

Search for Another Location

Airport:

Trip Planner

Search our weather history database for the weather conditions in past years. The results will help you decide how hot, cold, wet, or windy it might be!

Date:

Astronomy

Jan. 03, 2013 Rise Set
Actual Time 7:43 AM EST 5:26 PM EST
Civil Twilight 7:14 AM EST 5:54 PM EST
Nautical Twilight 6:42 AM EST 6:27 PM EST
Astronomical Twilight 6:10 AM EST 6:58 PM EST
Moon 11:50 PM EST (1/3) 11:04 AM EST (1/3)
Length of Visible Light 10h 40m
Length of Day
9h 42m
Waning Gibbous, 65% of the Moon is Illuminated
Jan 3
Waning Gibbous
Jan 4
Last Quarter
Jan 11
New
Jan 18
First Quarter
Jan 26
Full

Hourly Weather History & Observations

Time (EST) Temp. Windchill Dew Point Humidity Pressure Visibility Wind Dir Wind Speed Gust Speed Precip Events Conditions
12:15 AM 30.2 °F 24.3 °F 30.2 °F 100% 30.12 in 2.0 mi NNE 5.8 mph - N/A   Overcast
12:35 AM 30.2 °F 25.4 °F 30.2 °F 100% 30.12 in 2.5 mi NE 4.6 mph - N/A   Overcast
12:55 AM 30.2 °F 26.7 °F 30.2 °F 100% 30.11 in 4.0 mi NE 3.5 mph - N/A   Overcast
1:15 AM 28.4 °F - 28.4 °F 100% 30.10 in 5.0 mi Calm Calm - N/A   Overcast
1:35 AM 28.4 °F 24.6 °F 28.4 °F 100% 30.10 in 7.0 mi NNE 3.5 mph - N/A   Overcast
1:55 AM 28.4 °F 23.3 °F 28.4 °F 100% 30.11 in 7.0 mi NNE 4.6 mph - N/A   Overcast
2:15 AM 28.4 °F - 28.4 °F 100% 30.11 in 7.0 mi Calm Calm - N/A   Overcast
2:35 AM 28.4 °F - 28.4 °F 100% 30.11 in 7.0 mi Calm Calm - N/A   Overcast
2:55 AM 28.4 °F 23.3 °F 28.4 °F 100% 30.12 in 10.0 mi North 4.6 mph - N/A   Overcast
3:15 AM 28.4 °F 24.6 °F 28.4 °F 100% 30.11 in 10.0 mi NW 3.5 mph - N/A   Overcast
3:35 AM 28.4 °F 24.6 °F 28.4 °F 100% 30.11 in 10.0 mi North 3.5 mph - N/A   Overcast
3:55 AM 28.4 °F - 28.4 °F 100% 30.10 in 10.0 mi Calm Calm - N/A   Overcast
4:15 AM 30.2 °F - 30.2 °F 100% 30.11 in 10.0 mi Calm Calm - N/A   Overcast
4:35 AM 28.4 °F - 28.4 °F 100% 30.11 in 10.0 mi Calm Calm - N/A   Overcast
4:55 AM 30.2 °F 26.7 °F 30.2 °F 100% 30.11 in 10.0 mi West 3.5 mph - N/A   Overcast
5:15 AM 28.4 °F 24.6 °F 28.4 °F 100% 30.10 in 10.0 mi West 3.5 mph - N/A   Overcast
5:35 AM 28.4 °F - 28.4 °F 100% 30.11 in 10.0 mi Calm Calm - N/A   Overcast
5:55 AM 28.4 °F - 28.4 °F 100% 30.12 in 10.0 mi Calm Calm - N/A   Mostly Cloudy
6:15 AM 28.4 °F 24.6 °F 28.4 °F 100% 30.14 in 10.0 mi NNW 3.5 mph - N/A   Scattered Clouds
6:35 AM 28.4 °F 24.6 °F 28.4 °F 100% 30.14 in 10.0 mi North 3.5 mph - N/A   Mostly Cloudy
6:55 AM 28.4 °F 24.6 °F 28.4 °F 100% 30.15 in 7.0 mi North 3.5 mph - N/A   Mostly Cloudy
7:15 AM 28.4 °F - 28.4 °F 100% 30.15 in 10.0 mi Calm Calm - N/A   Scattered Clouds
7:35 AM 28.4 °F - 28.4 °F 100% 30.15 in 10.0 mi Calm Calm - N/A   Clear
7:55 AM 28.4 °F - 28.4 °F 100% 30.15 in 10.0 mi Calm Calm - N/A   Clear
8:15 AM 28.4 °F 24.6 °F 28.4 °F 100% 30.15 in 10.0 mi NW 3.5 mph - N/A   Clear
8:35 AM 28.4 °F - 28.4 °F 100% 30.15 in 10.0 mi Calm Calm - N/A   Clear
8:55 AM 28.4 °F - 28.4 °F 100% 30.16 in 7.0 mi Calm Calm - N/A   Clear
9:15 AM 28.4 °F 23.3 °F 28.4 °F 100% 30.16 in 10.0 mi NNW 4.6 mph - N/A   Clear
9:35 AM 28.4 °F - 28.4 °F 100% 30.17 in 10.0 mi Calm Calm - N/A   Scattered Clouds
9:55 AM 28.4 °F - 28.4 °F 100% 30.18 in 10.0 mi Calm Calm - N/A   Scattered Clouds
10:15 AM 30.2 °F - 30.2 °F 100% 30.18 in 10.0 mi Calm Calm - N/A   Scattered Clouds
10:35 AM 30.2 °F - 30.2 °F 100% 30.19 in 10.0 mi Calm Calm - N/A   Clear
10:55 AM 30.2 °F - 30.2 °F 100% 30.18 in 10.0 mi Calm Calm - N/A   Clear
11:15 AM 32.0 °F 28.7 °F 30.2 °F 93% 30.18 in 10.0 mi NNW 3.5 mph - N/A   Clear
11:35 AM 32.0 °F 27.5 °F 28.4 °F 87% 30.18 in 10.0 mi North 4.6 mph - N/A   Clear
11:55 AM 30.2 °F 25.4 °F 28.4 °F 93% 30.17 in 10.0 mi NW 4.6 mph - N/A   Clear
12:15 PM 32.0 °F 28.7 °F 30.2 °F 93% 30.16 in 10.0 mi WNW 3.5 mph - N/A   Clear
12:35 PM 32.0 °F 28.7 °F 30.2 °F 93% 30.16 in 10.0 mi NW 3.5 mph - N/A   Scattered Clouds
12:55 PM 33.8 °F 28.6 °F 30.2 °F 87% 30.16 in 10.0 mi WNW 5.8 mph - N/A   Scattered Clouds
1:15 PM 33.8 °F 30.8 °F 32.0 °F 93% 30.16 in 10.0 mi NNW 3.5 mph - 0.01 in   Mostly Cloudy
1:35 PM 33.8 °F 30.8 °F 32.0 °F 93% 30.15 in 10.0 mi NNW 3.5 mph - 0.02 in   Scattered Clouds
1:55 PM 33.8 °F 28.6 °F 32.0 °F 93% 30.15 in 10.0 mi NNW 5.8 mph - 0.03 in   Scattered Clouds
2:15 PM 33.8 °F 28.6 °F 28.4 °F 81% 30.15 in 10.0 mi NNW 5.8 mph - N/A   Scattered Clouds
2:35 PM 35.6 °F 31.7 °F 30.2 °F 81% 30.15 in 10.0 mi WNW 4.6 mph - N/A   Clear
2:55 PM 35.6 °F 32.8 °F 28.4 °F 75% 30.16 in 10.0 mi WNW 3.5 mph - N/A   Clear
3:15 PM 35.6 °F 30.7 °F 28.4 °F 75% 30.16 in 10.0 mi WNW 5.8 mph - N/A   Clear
3:35 PM 35.6 °F - 28.4 °F 75% 30.17 in 10.0 mi Calm Calm - N/A   Clear
3:55 PM 33.8 °F 30.8 °F 28.4 °F 81% 30.18 in 10.0 mi NNW 3.5 mph - N/A   Clear
4:15 PM 35.6 °F 32.8 °F 28.4 °F 75% 30.18 in 10.0 mi NW 3.5 mph - N/A   Clear
4:35 PM 35.6 °F 32.8 °F 26.6 °F 70% 30.19 in 10.0 mi WNW 3.5 mph - N/A   Clear
4:55 PM 33.8 °F 29.6 °F 26.6 °F 75% 30.20 in 10.0 mi West 4.6 mph - N/A   Clear
5:15 PM 33.8 °F 30.8 °F 26.6 °F 75% 30.20 in 10.0 mi West 3.5 mph - N/A   Clear
5:35 PM 32.0 °F - 26.6 °F 80% 30.20 in 10.0 mi Calm Calm - N/A   Clear
5:55 PM 32.0 °F 28.7 °F 24.8 °F 75% 30.21 in 10.0 mi WNW 3.5 mph - N/A   Clear
6:15 PM 32.0 °F 28.7 °F 26.6 °F 80% 30.21 in 10.0 mi WNW 3.5 mph - N/A   Clear
6:35 PM 32.0 °F - 26.6 °F 80% 30.22 in 10.0 mi Calm Calm - N/A   Clear
6:55 PM 32.0 °F 28.7 °F 26.6 °F 80% 30.22 in 10.0 mi WNW 3.5 mph - N/A   Clear
7:15 PM 32.0 °F 28.7 °F 26.6 °F 80% 30.22 in 10.0 mi West 3.5 mph - N/A   Clear
7:35 PM 30.2 °F 25.4 °F 24.8 °F 80% 30.23 in 10.0 mi West 4.6 mph - N/A   Clear
7:55 PM 30.2 °F 25.4 °F 24.8 °F 80% 30.23 in 10.0 mi West 4.6 mph - N/A   Clear
8:15 PM 30.2 °F 24.3 °F 23.0 °F 75% 30.23 in 10.0 mi West 5.8 mph - N/A   Clear
8:35 PM 30.2 °F 25.4 °F 23.0 °F 75% 30.23 in 10.0 mi West 4.6 mph - N/A   Clear
8:55 PM 30.2 °F 24.3 °F 23.0 °F 75% 30.23 in 10.0 mi West 5.8 mph - N/A   Clear
9:15 PM 30.2 °F 24.3 °F 23.0 °F 75% 30.23 in 10.0 mi West 5.8 mph - N/A   Clear
9:35 PM 30.2 °F 25.4 °F 23.0 °F 75% 30.23 in 10.0 mi West 4.6 mph - N/A   Clear
9:55 PM 30.2 °F 25.4 °F 23.0 °F 75% 30.24 in 10.0 mi West 4.6 mph - N/A   Clear
10:15 PM 30.2 °F 26.7 °F 23.0 °F 75% 30.24 in 10.0 mi WNW 3.5 mph - N/A   Scattered Clouds
10:35 PM 30.2 °F 24.3 °F 23.0 °F 75% 30.25 in 10.0 mi WNW 5.8 mph - N/A   Scattered Clouds
10:55 PM 30.2 °F 23.4 °F 23.0 °F 75% 30.25 in 10.0 mi WNW 6.9 mph - N/A   Clear
11:15 PM 28.4 °F 20.4 °F 23.0 °F 80% 30.26 in 10.0 mi WNW 8.1 mph - N/A   Clear
11:35 PM 28.4 °F 21.2 °F 23.0 °F 80% 30.26 in 10.0 mi WNW 6.9 mph - N/A   Clear
11:55 PM 28.4 °F 20.4 °F 21.2 °F 74% 30.26 in 10.0 mi WNW 8.1 mph - N/A   Clear